Location: Tamazert
(32.6352°N, 5.2072°W)
Time: 02:11:57
(UTC+00:00)

Tiros 1 despin weight - Pass Details

Date: 10 October 2022
Orbit: 590 x 637 km, 48.2° (Epoch: 30 November)

Event Time Altitude Azimuth Distance (km) Brightness Sun altitude
Rises 11:50:41 0° 211° (SSW) 2,800 ? 50.4°
Reaches altitude 10° 11:53:03 10° 204° (SSW) 1,904 ? 50.5°
Maximum altitude 11:57:07 39° 135° (SE) 883 ? 50.5°
Drops below altitude 10° 12:01:14 10° 66° (ENE) 1,924 ? 50.6°
Sets 12:03:38 0° 58° (ENE) 2,835 ? 50.6°
